| time (UTC) | temp F | wind direction | speed MPH | gust MPH | rain 1hr in | rain 24hr in | rain mn in | humidity % | barometer mb |
| 20260901051604 | 83 | 282 | 1.0 | 3.0 | 0.00 | 0.00 | 0.00 | 67 | 1016.3 |
| 20260901050527 | 84 | 280 | 1.0 | 3.0 | 0.00 | 0.00 | 0.00 | 67 | 1016.3 |
| 20260901045524 | 84 | 285 | 2.0 | 3.0 | 0.00 | 0.00 | 0.00 | 67 | 1016.3 |
| 20260901044611 | 84 | 280 | 1.0 | 3.0 | 0.00 | 0.00 | 0.00 | 67 | 1016.4 |
| 20260901043524 | 84 | 279 | 2.0 | 3.0 | 0.00 | 0.00 | 0.00 | 66 | 1016.5 |
| 20260901042518 | 84 | 291 | 1.0 | 2.0 | 0.00 | 0.00 | 0.00 | 66 | 1016.4 |
| 20260901041519 | 84 | 284 | 1.0 | 2.0 | 0.00 | 0.00 | 0.00 | 66 | 1016.4 |
| 20260901040519 | 84 | 284 | 1.0 | 3.0 | 0.00 | 0.00 | 0.00 | 65 | 1016.4 |
| 20260901035520 | 85 | 283 | 1.0 | 3.0 | 0.00 | 0.00 | 0.00 | 65 | 1016.4 |
| 20260901034519 | 85 | 282 | 1.0 | 2.0 | 0.00 | 0.00 | 0.00 | 65 | 1016.4 |
| 20260901033519 | 85 | 282 | 1.0 | 4.0 | 0.00 | 0.00 | 0.00 | 64 | 1016.4 |
| 20260901032520 | 86 | 290 | 1.0 | 2.0 | 0.00 | 0.00 | 0.00 | 63 | 1016.3 |
| 20260901031654 | 86 | 295 | 1.0 | 2.0 | 0.00 | 0.00 | 0.00 | 63 | 1016.3 |
| 20260901030517 | 86 | 291 | 1.0 | 2.0 | 0.00 | 0.00 | 0.00 | 63 | 1016.3 |
| 20260901025557 | 86 | 286 | 0.0 | 2.0 | 0.00 | 0.00 | 0.00 | 63 | 1016.2 |
| 20260901024520 | 87 | 290 | 1.0 | 2.0 | 0.00 | 0.00 | 0.00 | 62 | 1016.2 |
| 20260901023520 | 87 | 293 | 1.0 | 4.0 | 0.00 | 0.00 | 0.00 | 62 | 1016.1 |
| 20260901022521 | 87 | 291 | 1.0 | 4.0 | 0.00 | 0.00 | 0.00 | 61 | 1016.1 |
| 20260901021601 | 88 | 290 | 1.0 | 2.0 | 0.00 | 0.00 | 0.00 | 60 | 1016.0 |
| 20260901020517 | 88 | 295 | 1.0 | 2.0 | 0.00 | 0.00 | 0.00 | 59 | 1015.9 |
| 20260901015557 | 89 | 285 | 1.0 | 4.0 | 0.00 | 0.00 | 0.00 | 58 | 1015.8 |
| 20260901014521 | 89 | 297 | 1.0 | 2.0 | 0.00 | 0.00 | 0.00 | 56 | 1015.6 |
| 20260901013517 | 90 | 289 | 1.0 | 2.0 | 0.00 | 0.00 | 0.00 | 55 | 1015.6 |
| 20260901012518 | 90 | 289 | 0.0 | 2.0 | 0.00 | 0.00 | 0.00 | 55 | 1015.4 |
| 20260901011518 | 91 | 297 | 1.0 | 2.0 | 0.00 | 0.00 | 0.00 | 55 | 1015.3 |
| 20260901010558 | 91 | 296 | 1.0 | 2.0 | 0.00 | 0.00 | 0.00 | 54 | 1015.2 |
| 20260901005558 | 92 | 297 | 0.0 | 2.0 | 0.00 | 0.00 | 0.00 | 53 | 1015.1 |
| 20260901004518 | 92 | 292 | 1.0 | 2.0 | 0.00 | 0.00 | 0.00 | 52 | 1015.1 |
| 20260901003639 | 93 | 278 | 0.0 | 1.0 | 0.00 | 0.00 | 0.00 | 51 | 1014.9 |
| 20260901002518 | 93 | 299 | 1.0 | 2.0 | 0.00 | 0.00 | 0.00 | 50 | 1014.9 |
| 20260901001519 | 94 | 295 | 1.0 | 2.0 | 0.00 | 0.00 | 0.00 | 50 | 1014.9 |
| 20260901000519 | 95 | 292 | 0.0 | 2.0 | 0.00 | 0.00 | 0.00 | 49 | 1014.9 |
| 20260831235519 | 95 | 302 | 1.0 | 2.0 | 0.00 | 0.00 | 0.00 | 47 | 1014.8 |
| 20260831234639 | 96 | 280 | 0.0 | 4.0 | 0.00 | 0.00 | 0.00 | 46 | 1014.8 |
| 20260831233519 | 97 | 295 | 2.0 | 4.0 | 0.00 | 0.00 | 0.00 | 44 | 1014.9 |
| 20260831232519 | 98 | 298 | 1.0 | 3.0 | 0.00 | 0.00 | 0.00 | 41 | 1014.8 |
| 20260831231516 | 99 | 288 | 1.0 | 4.0 | 0.00 | 0.00 | 0.00 | 40 | 1014.7 |
| 20260831230519 | 99 | 300 | 2.0 | 4.0 | 0.00 | 0.00 | 0.00 | 39 | 1014.7 |
| 20260831225521 | 99 | 294 | 1.0 | 4.0 | 0.00 | 0.00 | 0.00 | 38 | 1014.6 |
| 20260831224600 | 100 | 291 | 1.0 | 4.0 | 0.00 | 0.00 | 0.00 | 38 | 1014.6 |
| 20260831223520 | 101 | 293 | 1.0 | 3.0 | 0.00 | 0.00 | 0.00 | 38 | 1014.5 |
| 20260831222557 | 101 | 284 | 1.0 | 3.0 | 0.00 | 0.00 | 0.00 | 37 | 1014.6 |
| 20260831221517 | 102 | 296 | 2.0 | 5.0 | 0.00 | 0.00 | 0.00 | 37 | 1014.7 |
| 20260831220520 | 103 | 288 | 1.0 | 3.0 | 0.00 | 0.00 | 0.00 | 37 | 1014.8 |
| 20260831215518 | 103 | 298 | 0.0 | 2.0 | 0.00 | 0.00 | 0.00 | 36 | 1014.8 |
| 20260831214517 | 103 | 295 | 1.0 | 4.0 | 0.00 | 0.00 | 0.00 | 37 | 1014.7 |
| 20260831213518 | 103 | 281 | 2.0 | 3.0 | 0.00 | 0.00 | 0.00 | 37 | 1014.7 |
| 20260831212518 | 102 | 289 | 2.0 | 5.0 | 0.00 | 0.00 | 0.00 | 36 | 1014.6 |
| 20260831211521 | 102 | 288 | 2.0 | 5.0 | 0.00 | 0.00 | 0.00 | 36 | 1014.7 |
| 20260831210518 | 101 | 291 | 2.0 | 4.0 | 0.00 | 0.00 | 0.00 | 36 | 1014.8 |
| 20260831205518 | 101 | 291 | 1.0 | 4.0 | 0.00 | 0.00 | 0.00 | 37 | 1014.9 |
| 20260831204525 | 100 | 294 | 2.0 | 3.0 | 0.00 | 0.00 | 0.00 | 35 | 1014.9 |
| 20260831203605 | 100 | 295 | 1.0 | 3.0 | 0.00 | 0.00 | 0.00 | 36 | 1015.0 |
| 20260831202527 | 100 | 295 | 2.0 | 3.0 | 0.00 | 0.00 | 0.00 | 37 | 1015.1 |
| 20260831201608 | 100 | 285 | 3.0 | 4.0 | 0.00 | 0.00 | 0.00 | 39 | 1015.2 |
| 20260831200526 | 100 | 291 | 3.0 | 4.0 | 0.00 | 0.00 | 0.00 | 38 | 1015.3 |
| 20260831195526 | 99 | 288 | 1.0 | 3.0 | 0.00 | 0.00 | 0.00 | 39 | 1015.4 |
| 20260831194606 | 99 | 294 | 2.0 | 3.0 | 0.00 | 0.00 | 0.00 | 39 | 1015.5 |
| 20260831193526 | 98 | 294 | 1.0 | 3.0 | 0.00 | 0.00 | 0.00 | 39 | 1015.5 |
| 20260831192526 | 98 | 298 | 2.0 | 3.0 | 0.00 | 0.00 | 0.00 | 40 | 1015.6 |
| 20260831191606 | 98 | 287 | 2.0 | 3.0 | 0.00 | 0.00 | 0.00 | 40 | 1015.8 |
| 20260831190527 | 98 | 292 | 2.0 | 4.0 | 0.00 | 0.00 | 0.00 | 41 | 1015.9 |
| 20260831185526 | 97 | 300 | 2.0 | 4.0 | 0.00 | 0.00 | 0.00 | 41 | 1016.0 |
| 20260831184527 | 97 | 285 | 2.0 | 3.0 | 0.00 | 0.00 | 0.00 | 41 | 1016.0 |
| 20260831183557 | 97 | 275 | 3.0 | 5.0 | 0.00 | 0.00 | 0.00 | 43 | 1016.1 |
| 20260831182525 | 96 | 291 | 3.0 | 5.0 | 0.00 | 0.00 | 0.00 | 42 | 1016.3 |
| 20260831180607 | 95 | 289 | 2.0 | 3.0 | 0.00 | 0.00 | 0.00 | 44 | 1016.6 |
| 20260831175527 | 94 | 298 | 3.0 | 4.0 | 0.00 | 0.00 | 0.00 | 45 | 1016.8 |
| 20260831174527 | 94 | 284 | 2.0 | 3.0 | 0.00 | 0.00 | 0.00 | 46 | 1016.9 |
| 20260831173527 | 93 | 266 | 1.0 | 3.0 | 0.00 | 0.00 | 0.00 | 46 | 1017.0 |
| 20260831172528 | 93 | 275 | 2.0 | 3.0 | 0.00 | 0.00 | 0.00 | 46 | 1017.1 |
| 20260831171527 | 93 | 289 | 2.0 | 5.0 | 0.00 | 0.00 | 0.00 | 45 | 1017.2 |
| 20260831170528 | 92 | 292 | 2.0 | 3.0 | 0.00 | 0.00 | 0.00 | 46 | 1017.4 |
| 20260831165530 | 91 | 282 | 2.0 | 3.0 | 0.00 | 0.00 | 0.00 | 47 | 1017.5 |
| 20260831164528 | 91 | 283 | 2.0 | 4.0 | 0.00 | 0.00 | 0.00 | 47 | 1017.6 |
| 20260831163528 | 90 | 279 | 1.0 | 3.0 | 0.00 | 0.00 | 0.00 | 48 | 1017.7 |
| 20260831162528 | 90 | 287 | 2.0 | 4.0 | 0.00 | 0.00 | 0.00 | 48 | 1017.7 |
| 20260831161528 | 89 | 292 | 2.0 | 3.0 | 0.00 | 0.00 | 0.00 | 49 | 1017.7 |
| 20260831160528 | 88 | 290 | 2.0 | 4.0 | 0.00 | 0.00 | 0.00 | 49 | 1017.7 |
| 20260831155608 | 87 | 283 | 2.0 | 3.0 | 0.00 | 0.00 | 0.00 | 51 | 1017.7 |
| 20260831154525 | 86 | 281 | 2.0 | 6.0 | 0.00 | 0.00 | 0.00 | 52 | 1017.7 |
| 20260831153529 | 85 | 283 | 2.0 | 3.0 | 0.00 | 0.00 | 0.00 | 55 | 1017.7 |
| 20260831152529 | 85 | 277 | 1.0 | 2.0 | 0.00 | 0.00 | 0.00 | 57 | 1017.8 |
| 20260831151529 | 84 | 270 | 2.0 | 3.0 | 0.00 | 0.00 | 0.00 | 57 | 1017.7 |
| 20260831150529 | 83 | 280 | 1.0 | 3.0 | 0.00 | 0.00 | 0.00 | 58 | 1017.7 |
| 20260831145529 | 83 | 271 | 1.0 | 3.0 | 0.00 | 0.00 | 0.00 | 59 | 1017.7 |
| 20260831144529 | 82 | 294 | 1.0 | 4.0 | 0.00 | 0.00 | 0.00 | 60 | 1017.6 |
| 20260831143531 | 82 | 282 | 2.0 | 2.0 | 0.00 | 0.00 | 0.00 | 60 | 1017.6 |
| 20260831142532 | 81 | 278 | 1.0 | 2.0 | 0.00 | 0.00 | 0.00 | 62 | 1017.6 |
| 20260831141517 | 80 | 287 | 2.0 | 3.0 | 0.00 | 0.00 | 0.00 | 63 | 1017.6 |
| 20260831140516 | 80 | 265 | 1.0 | 2.0 | 0.00 | 0.00 | 0.00 | 64 | 1017.6 |
| 20260831135530 | 79 | 264 | 1.0 | 2.0 | 0.00 | 0.00 | 0.00 | 64 | 1017.6 |
| 20260831134532 | 79 | 267 | 1.0 | 2.0 | 0.00 | 0.00 | 0.00 | 64 | 1017.5 |
| 20260831133530 | 78 | 278 | 2.0 | 3.0 | 0.00 | 0.00 | 0.00 | 65 | 1017.6 |
| 20260831132530 | 78 | 277 | 2.0 | 3.0 | 0.00 | 0.00 | 0.00 | 65 | 1017.5 |
| 20260831131530 | 78 | 272 | 2.0 | 3.0 | 0.00 | 0.00 | 0.00 | 66 | 1017.4 |
| 20260831130517 | 78 | 281 | 2.0 | 2.0 | 0.00 | 0.00 | 0.00 | 66 | 1017.4 |
| 20260831125518 | 77 | 275 | 2.0 | 3.0 | 0.00 | 0.00 | 0.00 | 66 | 1017.3 |
| 20260831124518 | 77 | 272 | 2.0 | 3.0 | 0.00 | 0.00 | 0.00 | 67 | 1017.2 |
| 20260831123518 | 75 | 277 | 2.0 | 2.0 | 0.00 | 0.00 | 0.00 | 69 | 1017.2 |
| 20260831122518 | 74 | 271 | 1.0 | 2.0 | 0.00 | 0.00 | 0.00 | 71 | 1017.0 |
| 20260831121518 | 74 | 276 | 1.0 | 2.0 | 0.00 | 0.00 | 0.00 | 73 | 1016.9 |
| 20260831120518 | 74 | 303 | 1.0 | 2.0 | 0.00 | 0.00 | 0.00 | 72 | 1016.9 |
| 20260831115518 | 74 | 282 | 2.0 | 2.0 | 0.00 | 0.00 | 0.00 | 72 | 1016.8 |
| 20260831114518 | 74 | 276 | 1.0 | 2.0 | 0.00 | 0.00 | 0.00 | 72 | 1016.7 |
| 20260831113518 | 74 | 279 | 2.0 | 3.0 | 0.00 | 0.00 | 0.00 | 71 | 1016.7 |
| 20260831112518 | 74 | 274 | 1.0 | 2.0 | 0.00 | 0.00 | 0.00 | 71 | 1016.6 |
| 20260831111559 | 74 | 297 | 1.0 | 2.0 | 0.00 | 0.00 | 0.00 | 71 | 1016.7 |
| 20260831110559 | 75 | 282 | 1.0 | 2.0 | 0.00 | 0.00 | 0.00 | 70 | 1016.6 |
| 20260831105519 | 75 | 285 | 1.0 | 2.0 | 0.00 | 0.00 | 0.00 | 70 | 1016.6 |
| 20260831104519 | 75 | 282 | 0.0 | 2.0 | 0.00 | 0.00 | 0.00 | 69 | 1016.7 |
| 20260831103519 | 75 | 288 | 1.0 | 1.0 | 0.00 | 0.00 | 0.00 | 69 | 1016.6 |
| 20260831102519 | 75 | 275 | 1.0 | 2.0 | 0.00 | 0.00 | 0.00 | 68 | 1016.5 |
| 20260831101519 | 75 | 314 | 1.0 | 1.0 | 0.00 | 0.00 | 0.00 | 68 | 1016.5 |
| 20260831100519 | 75 | 272 | 1.0 | 2.0 | 0.00 | 0.00 | 0.00 | 68 | 1016.5 |
| 20260831095520 | 75 | 301 | 1.0 | 1.0 | 0.00 | 0.00 | 0.00 | 68 | 1016.4 |
| 20260831094519 | 75 | 284 | 1.0 | 2.0 | 0.00 | 0.00 | 0.00 | 68 | 1016.5 |
| 20260831093519 | 75 | 297 | 1.0 | 1.0 | 0.00 | 0.00 | 0.00 | 69 | 1016.5 |
| 20260831092520 | 75 | 285 | 1.0 | 2.0 | 0.00 | 0.00 | 0.00 | 68 | 1016.4 |
| 20260831091520 | 76 | 276 | 0.0 | 1.0 | 0.00 | 0.00 | 0.00 | 68 | 1016.3 |
| 20260831090520 | 76 | 294 | 1.0 | 1.0 | 0.00 | 0.00 | 0.00 | 68 | 1016.2 |
| 20260831085520 | 76 | 291 | 1.0 | 2.0 | 0.00 | 0.00 | 0.00 | 68 | 1016.2 |
| 20260831084520 | 76 | 278 | 0.0 | 1.0 | 0.00 | 0.00 | 0.00 | 68 | 1016.1 |
| 20260831083614 | 76 | 280 | 1.0 | 1.0 | 0.00 | 0.00 | 0.00 | 68 | 1016.0 |
| 20260831082606 | 0 | 267 | 1.0 | 1.0 | 0.00 | 0.00 | 0.00 | ||
| 20260831081521 | 76 | 298 | 1.0 | 1.0 | 0.00 | 0.00 | 0.00 | 67 | 1015.8 |
| 20260831080601 | 76 | 285 | 1.0 | 2.0 | 0.00 | 0.00 | 0.00 | 67 | 1015.8 |
| 20260831074519 | 77 | 291 | 1.0 | 2.0 | 0.00 | 0.00 | 0.00 | 67 | 1015.8 |
| 20260831073519 | 77 | 285 | 1.0 | 2.0 | 0.00 | 0.00 | 0.00 | 67 | 1015.9 |
| 20260831072519 | 77 | 277 | 1.0 | 2.0 | 0.00 | 0.00 | 0.00 | 67 | 1015.9 |
| 20260831071522 | 77 | 291 | 1.0 | 2.0 | 0.00 | 0.00 | 0.00 | 68 | 1016.0 |
| 20260831070519 | 77 | 286 | 1.0 | 2.0 | 0.00 | 0.00 | 0.00 | 68 | 1016.0 |
| 20260831065519 | 77 | 286 | 1.0 | 3.0 | 0.00 | 0.00 | 0.00 | 67 | 1016.1 |
| 20260831064519 | 77 | 282 | 1.0 | 2.0 | 0.00 | 0.00 | 0.00 | 67 | 1016.1 |
| 20260831063519 | 77 | 284 | 1.0 | 2.0 | 0.00 | 0.00 | 0.00 | 66 | 1016.2 |
| 20260831062520 | 78 | 290 | 1.0 | 2.0 | 0.00 | 0.00 | 0.00 | 66 | 1016.2 |
| 20260831061516 | 78 | 285 | 1.0 | 2.0 | 0.00 | 0.00 | 0.00 | 65 | 1016.3 |
| 20260831060517 | 78 | 285 | 1.0 | 3.0 | 0.00 | 0.00 | 0.00 | 65 | 1016.3 |
| 20260831055520 | 78 | 290 | 1.0 | 3.0 | 0.00 | 0.00 | 0.00 | 65 | 1016.2 |
| 20260831054520 | 78 | 292 | 0.0 | 2.0 | 0.00 | 0.00 | 0.00 | 64 | 1016.2 |
| 20260831053517 | 78 | 291 | 1.0 | 2.0 | 0.00 | 0.00 | 0.00 | 64 | 1016.3 |
| 20260831052557 | 79 | 290 | 1.0 | 2.0 | 0.00 | 0.00 | 0.00 | 64 | 1016.2 |